Location: Newark
(53.2000°N, 6.1000°W)
Time: 08:54:59
(UTC+00:00)

Envisat - Visible Passes

Search period start: 20 September 2020 00:00
Search period end: 30 September 2020 00:00
Orbit: 764 x 766 km, 98.1° (Epoch: 20 September)

Date Brightness Start Highest point End Pass type
(mag) Time Alt. Az. Time Alt. Az. Time Alt. Az.
20 Sep 6.5 04:56:49 10° ENE 04:58:41 12° E 05:00:33 10° ESE visible
21 Sep 6.2 18:58:58 10° SW 19:02:21 18° W 19:05:44 10° NW visible
22 Sep 6.0 05:20:55 10° NE 05:24:31 19° E 05:28:07 10° SE visible
23 Sep 6.8 19:27:00 10° W 19:28:12 11° W 19:29:24 10° WNW visible
24 Sep 6.0 18:47:00 10° SW 18:50:50 21° W 18:54:42 10° NW visible
25 Sep 6.2 05:09:57 10° NE 05:13:00 16° E 05:16:03 10° ESE visible
26 Sep 6.4 19:14:12 10° WSW 19:16:39 13° W 19:19:06 10° NW visible
27 Sep 5.7 05:34:37 10° NE 05:38:47 25° E 05:42:55 10° SE visible
27 Sep 5.7 18:35:09 10° SSW 18:39:20 26° W 18:43:34 10° NW visible
28 Sep 6.4 04:59:12 10° ENE 05:01:28 13° E 05:03:44 10° ESE visible
29 Sep 6.2 19:01:57 10° SW 19:05:07 16° W 19:08:17 10° NW visible
